Year,Month,Day,Hour,Minute,Value (Times are PST for temperature in C)
2021,06,28,00,00,25.60
2021,06,28,00,01,25.50
2021,06,28,00,02,25.50
2021,06,28,00,03,25.50
2021,06,28,00,04,25.50
2021,06,28,00,05,25.60
2021,06,28,00,06,25.60
2021,06,28,00,07,25.60
2021,06,28,00,08,25.60
2021,06,28,00,09,25.60
2021,06,28,00,10,25.60
2021,06,28,00,11,25.60
2021,06,28,00,12,25.70
2021,06,28,00,13,25.70
2021,06,28,00,14,25.70
2021,06,28,00,15,25.70
2021,06,28,00,16,25.60
2021,06,28,00,17,25.60
2021,06,28,00,18,25.50
2021,06,28,00,19,25.40
2021,06,28,00,20,25.40
2021,06,28,00,21,25.30
2021,06,28,00,22,25.30
2021,06,28,00,23,25.20
2021,06,28,00,24,25.10
2021,06,28,00,25,25.10
2021,06,28,00,26,25.10
2021,06,28,00,27,25.00
2021,06,28,00,28,24.90
2021,06,28,00,29,24.90
2021,06,28,00,30,24.90
2021,06,28,00,31,24.80
2021,06,28,00,32,24.80
2021,06,28,00,33,24.80
2021,06,28,00,34,24.80
2021,06,28,00,35,24.80
2021,06,28,00,36,24.70
2021,06,28,00,37,24.70
2021,06,28,00,38,24.70
2021,06,28,00,39,24.70
2021,06,28,00,40,24.70
2021,06,28,00,41,24.70
2021,06,28,00,42,24.60
2021,06,28,00,43,24.60
2021,06,28,00,44,24.60
2021,06,28,00,45,24.60
2021,06,28,00,46,24.50
2021,06,28,00,47,24.50
2021,06,28,00,48,24.50
2021,06,28,00,49,24.40
2021,06,28,00,50,24.40
2021,06,28,00,51,24.40
2021,06,28,00,52,24.40
2021,06,28,00,53,24.40
2021,06,28,00,54,24.40
2021,06,28,00,55,24.40
2021,06,28,00,56,24.40
2021,06,28,00,57,24.40
2021,06,28,00,58,24.30
2021,06,28,00,59,24.30
2021,06,28,01,00,24.30
2021,06,28,01,01,24.30
2021,06,28,01,02,24.30
2021,06,28,01,03,24.30
2021,06,28,01,04,24.20
2021,06,28,01,05,24.20
2021,06,28,01,06,24.20
2021,06,28,01,07,24.20
2021,06,28,01,08,24.20
2021,06,28,01,09,24.20
2021,06,28,01,10,24.20
2021,06,28,01,11,24.20
2021,06,28,01,12,24.20
2021,06,28,01,13,24.20
2021,06,28,01,14,24.20
2021,06,28,01,15,24.10
2021,06,28,01,16,24.10
2021,06,28,01,17,24.10
2021,06,28,01,18,24.10
2021,06,28,01,19,24.00
2021,06,28,01,20,24.00
2021,06,28,01,21,24.00
2021,06,28,01,22,23.90
2021,06,28,01,23,23.90
2021,06,28,01,24,23.90
2021,06,28,01,25,23.80
2021,06,28,01,26,23.80
2021,06,28,01,27,23.80
2021,06,28,01,28,23.80
2021,06,28,01,29,23.70
2021,06,28,01,30,23.70
2021,06,28,01,31,23.70
2021,06,28,01,32,23.60
2021,06,28,01,33,23.60
2021,06,28,01,34,23.50
2021,06,28,01,35,23.40
2021,06,28,01,36,23.30
2021,06,28,01,37,23.10
2021,06,28,01,38,23.00
2021,06,28,01,39,22.80
2021,06,28,01,40,22.70
2021,06,28,01,41,22.50
2021,06,28,01,42,22.40
2021,06,28,01,43,22.20
2021,06,28,01,44,22.00
2021,06,28,01,45,21.90
2021,06,28,01,46,21.80
2021,06,28,01,47,21.70
2021,06,28,01,48,21.60
2021,06,28,01,49,21.50
2021,06,28,01,50,21.40
2021,06,28,01,51,21.30
2021,06,28,01,52,21.20
2021,06,28,01,53,21.10
2021,06,28,01,54,21.00
2021,06,28,01,55,21.00
2021,06,28,01,56,20.90
2021,06,28,01,57,20.90
2021,06,28,01,58,20.80
2021,06,28,01,59,20.80
2021,06,28,02,00,20.70
2021,06,28,02,01,20.70
2021,06,28,02,02,20.70
2021,06,28,02,03,20.60
2021,06,28,02,04,20.60
2021,06,28,02,05,20.50
2021,06,28,02,06,20.50
2021,06,28,02,07,20.40
2021,06,28,02,08,20.30
2021,06,28,02,09,20.30
2021,06,28,02,10,20.30
2021,06,28,02,11,20.30
2021,06,28,02,12,20.20
2021,06,28,02,13,20.20
2021,06,28,02,14,20.20
2021,06,28,02,15,20.10
2021,06,28,02,16,20.10
2021,06,28,02,17,20.10
2021,06,28,02,18,20.00
2021,06,28,02,19,20.00
2021,06,28,02,20,19.90
2021,06,28,02,21,19.80
2021,06,28,02,22,19.70
2021,06,28,02,23,19.70
2021,06,28,02,24,19.60
2021,06,28,02,25,19.60
2021,06,28,02,26,19.50
2021,06,28,02,27,19.50
2021,06,28,02,28,19.50
2021,06,28,02,29,19.40
2021,06,28,02,30,19.40
2021,06,28,02,31,19.40
2021,06,28,02,32,19.40
2021,06,28,02,33,19.40
2021,06,28,02,34,19.40
2021,06,28,02,35,19.40
2021,06,28,02,36,19.30
2021,06,28,02,37,19.30
2021,06,28,02,38,19.30
2021,06,28,02,39,19.30
2021,06,28,02,40,19.30
2021,06,28,02,41,19.30
2021,06,28,02,42,19.30
2021,06,28,02,43,19.30
2021,06,28,02,44,19.30
2021,06,28,02,45,19.30
2021,06,28,02,46,19.40
2021,06,28,02,47,19.40
2021,06,28,02,48,19.50
2021,06,28,02,49,19.60
2021,06,28,02,50,19.60
2021,06,28,02,51,19.60
2021,06,28,02,52,19.70
2021,06,28,02,53,19.70
2021,06,28,02,54,19.80
2021,06,28,02,55,19.90
2021,06,28,02,56,19.90
2021,06,28,02,57,20.00
2021,06,28,02,58,20.10
2021,06,28,02,59,20.10
2021,06,28,03,00,20.20
2021,06,28,03,01,20.20
2021,06,28,03,02,20.30
2021,06,28,03,06,20.30
2021,06,28,03,07,20.30
2021,06,28,03,08,20.30
2021,06,28,03,09,20.30
2021,06,28,03,10,20.30
2021,06,28,03,11,20.30
2021,06,28,03,12,20.30
2021,06,28,03,13,20.30
2021,06,28,03,14,20.30
2021,06,28,03,15,20.40
2021,06,28,03,16,20.50
2021,06,28,03,17,20.60
2021,06,28,03,18,20.70
2021,06,28,03,19,20.70
2021,06,28,03,20,20.80
2021,06,28,03,21,20.80
2021,06,28,03,22,20.90
2021,06,28,03,23,20.90
2021,06,28,03,24,20.90
2021,06,28,03,25,20.90
2021,06,28,03,26,20.90
2021,06,28,03,27,20.90
2021,06,28,03,28,21.00
2021,06,28,03,29,21.00
2021,06,28,03,30,21.10
2021,06,28,03,31,21.10
2021,06,28,03,32,21.10
2021,06,28,03,33,21.10
2021,06,28,03,34,21.10
2021,06,28,03,35,21.10
2021,06,28,03,36,21.10
2021,06,28,03,37,21.10
2021,06,28,03,38,21.10
2021,06,28,03,39,21.10
2021,06,28,03,40,21.10
2021,06,28,03,41,21.00
2021,06,28,03,42,21.00
2021,06,28,03,43,20.90
2021,06,28,03,44,20.80
2021,06,28,03,45,20.80
2021,06,28,03,46,20.80
2021,06,28,03,47,20.90
2021,06,28,03,48,20.90
2021,06,28,03,49,20.90
2021,06,28,03,50,20.90
2021,06,28,03,51,20.90
2021,06,28,03,52,20.80
2021,06,28,03,53,20.80
2021,06,28,03,54,20.80
2021,06,28,03,55,20.80
2021,06,28,03,56,20.80
2021,06,28,03,57,20.80
2021,06,28,03,58,20.80
2021,06,28,03,59,20.80
2021,06,28,04,00,20.80
2021,06,28,04,01,20.70
2021,06,28,04,02,20.60
2021,06,28,04,03,20.60
2021,06,28,04,04,20.60
2021,06,28,04,05,20.70
2021,06,28,04,06,20.70
2021,06,28,04,07,20.70
2021,06,28,04,08,20.60
2021,06,28,04,09,20.60
2021,06,28,04,10,20.60
2021,06,28,04,11,20.60
2021,06,28,04,12,20.50
2021,06,28,04,13,20.50
2021,06,28,04,14,20.50
2021,06,28,04,15,20.50
2021,06,28,04,16,20.50
2021,06,28,04,17,20.50
2021,06,28,04,18,20.50
2021,06,28,04,19,20.40
2021,06,28,04,20,20.40
2021,06,28,04,21,20.40
2021,06,28,04,22,20.40
2021,06,28,04,23,20.40
2021,06,28,04,24,20.40
2021,06,28,04,25,20.40
2021,06,28,04,26,20.30
2021,06,28,04,27,20.30
2021,06,28,04,28,20.30
2021,06,28,04,29,20.30
2021,06,28,04,30,20.20
2021,06,28,04,31,20.20
2021,06,28,04,32,20.20
2021,06,28,04,33,20.20
2021,06,28,04,34,20.20
2021,06,28,04,35,20.10
2021,06,28,04,36,20.10
2021,06,28,04,37,20.10
2021,06,28,04,38,20.10
2021,06,28,04,39,20.10
2021,06,28,04,40,20.10
2021,06,28,04,41,20.10
2021,06,28,04,42,20.10
2021,06,28,04,43,20.10
2021,06,28,04,44,20.10
2021,06,28,04,45,20.20
2021,06,28,04,46,20.20
2021,06,28,04,47,20.20
2021,06,28,04,48,20.20
2021,06,28,04,49,20.20
2021,06,28,04,50,20.20
2021,06,28,04,51,20.20
2021,06,28,04,52,20.10
2021,06,28,04,53,20.10
2021,06,28,04,54,20.10
2021,06,28,04,55,20.10
2021,06,28,04,56,20.10
2021,06,28,04,57,20.10
2021,06,28,04,58,20.10
2021,06,28,04,59,20.10
2021,06,28,05,00,20.10
2021,06,28,05,01,20.10
2021,06,28,05,02,20.10
2021,06,28,05,03,20.10
2021,06,28,05,04,20.10
2021,06,28,05,05,20.10
2021,06,28,05,06,20.10
2021,06,28,05,07,20.10
2021,06,28,05,08,20.10
2021,06,28,05,09,20.10
2021,06,28,05,10,20.10
2021,06,28,05,11,20.10
2021,06,28,05,12,20.10
2021,06,28,05,13,20.10
2021,06,28,05,14,20.10
2021,06,28,05,15,20.10
2021,06,28,05,16,20.10
2021,06,28,05,17,20.00
2021,06,28,05,18,20.00
2021,06,28,05,19,20.00
2021,06,28,05,20,19.90
2021,06,28,05,21,19.90
2021,06,28,05,22,19.90
2021,06,28,05,23,19.90
2021,06,28,05,24,19.80
2021,06,28,05,25,19.80
2021,06,28,05,26,19.80
2021,06,28,05,27,19.90
2021,06,28,05,28,19.90
2021,06,28,05,29,19.90
2021,06,28,05,30,19.90
2021,06,28,05,31,19.90
2021,06,28,05,32,20.00
2021,06,28,05,33,20.00
2021,06,28,05,34,20.00
2021,06,28,05,35,20.00
2021,06,28,05,36,20.10
2021,06,28,05,37,20.10
2021,06,28,05,38,20.10
2021,06,28,05,39,20.20
2021,06,28,05,40,20.20
2021,06,28,05,41,20.20
2021,06,28,05,42,20.20
2021,06,28,05,43,20.20
2021,06,28,05,44,20.30
2021,06,28,05,45,20.40
2021,06,28,05,46,20.70
2021,06,28,05,47,21.10
2021,06,28,05,48,21.60
2021,06,28,05,49,22.00
2021,06,28,05,50,22.40
2021,06,28,05,51,22.70
2021,06,28,05,52,22.90
2021,06,28,05,53,23.20
2021,06,28,05,54,23.50
2021,06,28,05,55,23.80
2021,06,28,05,56,23.90
2021,06,28,05,57,24.00
2021,06,28,05,58,24.20
2021,06,28,05,59,24.30
2021,06,28,06,00,24.50
2021,06,28,06,01,24.60
2021,06,28,06,02,24.70
2021,06,28,06,03,24.70
2021,06,28,06,04,24.70
2021,06,28,06,05,24.70
2021,06,28,06,06,24.70
2021,06,28,06,07,24.70
2021,06,28,06,08,24.60
2021,06,28,06,09,24.50
2021,06,28,06,10,24.50
2021,06,28,06,11,24.40
2021,06,28,06,12,24.40
2021,06,28,06,13,24.40
2021,06,28,06,14,24.50
2021,06,28,06,15,24.60
2021,06,28,06,16,24.80
2021,06,28,06,17,25.00
2021,06,28,06,18,25.10
2021,06,28,06,19,25.30
2021,06,28,06,20,25.40
2021,06,28,06,21,25.50
2021,06,28,06,22,25.70
2021,06,28,06,23,25.80
2021,06,28,06,24,25.90
2021,06,28,06,25,26.00
2021,06,28,06,26,26.00
2021,06,28,06,27,26.10
2021,06,28,06,28,26.20
2021,06,28,06,29,26.30
2021,06,28,06,30,26.40
2021,06,28,06,31,26.50
2021,06,28,06,32,26.60
2021,06,28,06,33,26.70
2021,06,28,06,34,26.70
2021,06,28,06,35,26.70
2021,06,28,06,36,26.70
2021,06,28,06,37,26.70
2021,06,28,06,38,26.70
2021,06,28,06,39,26.80
2021,06,28,06,40,26.80
2021,06,28,06,41,26.80
2021,06,28,06,42,26.80
2021,06,28,06,43,26.90
2021,06,28,06,44,26.90
2021,06,28,06,45,26.90
2021,06,28,06,46,26.90
2021,06,28,06,47,27.00
2021,06,28,06,48,27.10
2021,06,28,06,49,27.10
2021,06,28,06,50,27.20
2021,06,28,06,51,27.20
2021,06,28,06,52,27.30
2021,06,28,06,53,27.40
2021,06,28,06,54,27.40
2021,06,28,06,55,27.50
2021,06,28,06,56,27.50
2021,06,28,06,57,27.60
2021,06,28,06,58,27.60
2021,06,28,06,59,27.70
2021,06,28,07,00,27.70
2021,06,28,07,01,27.70
2021,06,28,07,02,27.80
2021,06,28,07,03,27.80
2021,06,28,07,04,27.80
2021,06,28,07,05,27.90
2021,06,28,07,06,27.90
2021,06,28,07,07,28.00
2021,06,28,07,08,28.00
2021,06,28,07,09,28.10
2021,06,28,07,10,28.10
2021,06,28,07,11,28.10
2021,06,28,07,12,28.20
2021,06,28,07,13,28.20
2021,06,28,07,14,28.20
2021,06,28,07,15,28.30
2021,06,28,07,16,28.30
2021,06,28,07,17,28.30
2021,06,28,07,18,28.40
2021,06,28,07,19,28.40
2021,06,28,07,20,28.40
2021,06,28,07,21,28.50
2021,06,28,07,22,28.60
2021,06,28,07,23,28.60
2021,06,28,07,24,28.60
2021,06,28,07,25,28.60
2021,06,28,07,26,28.70
2021,06,28,07,27,28.70
2021,06,28,07,28,28.80
2021,06,28,07,29,28.80
2021,06,28,07,30,28.80
2021,06,28,07,31,28.80
2021,06,28,07,32,28.80
2021,06,28,07,33,28.90
2021,06,28,07,34,28.90
2021,06,28,07,35,28.90
2021,06,28,07,36,28.90
2021,06,28,07,37,28.90
2021,06,28,07,38,28.90
2021,06,28,07,39,29.00
2021,06,28,07,40,29.00
2021,06,28,07,41,29.00
2021,06,28,07,42,29.00
2021,06,28,07,43,29.10
2021,06,28,07,44,29.10
2021,06,28,07,45,29.10
2021,06,28,07,46,29.20
2021,06,28,07,47,29.20
2021,06,28,07,48,29.30
2021,06,28,07,49,29.30
2021,06,28,07,50,29.30
2021,06,28,07,51,29.40
2021,06,28,07,52,29.40
2021,06,28,07,53,29.50
2021,06,28,07,54,29.50
2021,06,28,07,55,29.60
2021,06,28,07,56,29.70
2021,06,28,07,57,29.70
2021,06,28,07,58,29.70
2021,06,28,07,59,29.80
2021,06,28,08,00,29.80
2021,06,28,08,01,29.90
2021,06,28,08,02,29.90
2021,06,28,08,03,29.90
2021,06,28,08,04,29.90
2021,06,28,08,05,30.00
2021,06,28,08,06,30.00
2021,06,28,08,07,30.10
2021,06,28,08,08,30.10
2021,06,28,08,09,30.10
2021,06,28,08,10,30.10
2021,06,28,08,11,30.20
2021,06,28,08,12,30.20
2021,06,28,08,13,30.20
2021,06,28,08,14,30.30
2021,06,28,08,15,30.30
2021,06,28,08,16,30.30
2021,06,28,08,17,30.30
2021,06,28,08,18,30.40
2021,06,28,08,19,30.50
2021,06,28,08,20,30.50
2021,06,28,08,21,30.60
2021,06,28,08,22,30.60
2021,06,28,08,23,30.70
2021,06,28,08,24,30.70
2021,06,28,08,25,30.80
2021,06,28,08,26,30.80
2021,06,28,08,27,30.80
2021,06,28,08,28,30.80
2021,06,28,08,29,30.90
2021,06,28,08,30,30.90
2021,06,28,08,31,31.00
2021,06,28,08,32,31.00
2021,06,28,08,33,31.10
2021,06,28,08,34,31.10
2021,06,28,08,35,31.20
2021,06,28,08,36,31.20
2021,06,28,08,37,31.20
2021,06,28,08,38,31.20
2021,06,28,08,39,31.30
2021,06,28,08,40,31.30
2021,06,28,08,41,31.40
2021,06,28,08,42,31.50
2021,06,28,08,43,31.50
2021,06,28,08,44,31.50
2021,06,28,08,45,31.60
2021,06,28,08,46,31.60
2021,06,28,08,47,31.60
2021,06,28,08,48,31.60
2021,06,28,08,49,31.70
2021,06,28,08,50,31.70
2021,06,28,08,51,31.60
2021,06,28,08,52,31.70
2021,06,28,08,53,31.70
2021,06,28,08,54,31.70
2021,06,28,08,55,31.80
2021,06,28,08,56,31.80
2021,06,28,08,57,31.80
2021,06,28,08,58,31.70
2021,06,28,08,59,31.70
2021,06,28,09,00,31.60
2021,06,28,09,01,31.50
2021,06,28,09,02,31.40
2021,06,28,09,03,31.30
2021,06,28,09,04,31.10
2021,06,28,09,05,31.00
2021,06,28,09,06,30.80
2021,06,28,09,07,30.70
2021,06,28,09,08,30.50
2021,06,28,09,09,30.40
2021,06,28,09,10,30.20
2021,06,28,09,11,30.10
2021,06,28,09,12,30.00
2021,06,28,09,13,29.90
2021,06,28,09,14,29.80
2021,06,28,09,15,29.80
2021,06,28,09,16,29.70
2021,06,28,09,17,29.70
2021,06,28,09,18,29.60
2021,06,28,09,19,29.60
2021,06,28,09,20,29.50
2021,06,28,09,21,29.50
2021,06,28,09,22,29.40
2021,06,28,09,23,29.40
2021,06,28,09,24,29.40
2021,06,28,09,25,29.40
2021,06,28,09,26,29.50
2021,06,28,09,27,29.60
2021,06,28,09,28,29.60
2021,06,28,09,29,29.70
2021,06,28,09,30,29.80
2021,06,28,09,31,30.00
2021,06,28,09,32,30.10
2021,06,28,09,33,30.20
2021,06,28,09,34,30.40
2021,06,28,09,35,30.60
2021,06,28,09,36,30.70
2021,06,28,09,37,30.90
2021,06,28,09,38,31.00
2021,06,28,09,39,31.10
2021,06,28,09,40,31.30
2021,06,28,09,41,31.40
2021,06,28,09,42,31.50
2021,06,28,09,43,31.60
2021,06,28,09,44,31.70
2021,06,28,09,45,31.70
2021,06,28,09,46,31.80
2021,06,28,09,47,31.80
2021,06,28,09,48,31.90
2021,06,28,09,49,31.90
2021,06,28,09,50,31.90
2021,06,28,09,51,32.00
2021,06,28,09,52,32.00
2021,06,28,09,53,32.10
2021,06,28,09,54,32.10
2021,06,28,09,55,32.20
2021,06,28,09,56,32.20
2021,06,28,09,57,32.20
2021,06,28,09,58,32.30
2021,06,28,09,59,32.30
2021,06,28,10,00,32.30
2021,06,28,10,01,32.40
2021,06,28,10,02,32.40
2021,06,28,10,03,32.40
2021,06,28,10,04,32.40
2021,06,28,10,05,32.40
2021,06,28,10,06,32.40
2021,06,28,10,07,32.40
2021,06,28,10,08,32.40
2021,06,28,10,09,32.50
2021,06,28,10,10,32.50
2021,06,28,10,11,32.50
2021,06,28,10,12,32.60
2021,06,28,10,13,32.60
2021,06,28,10,14,32.60
2021,06,28,10,15,32.60
2021,06,28,10,16,32.70
2021,06,28,10,17,32.70
2021,06,28,10,18,32.80
2021,06,28,10,19,32.80
2021,06,28,10,20,32.90
2021,06,28,10,21,32.90
2021,06,28,10,22,33.00
2021,06,28,10,23,33.00
2021,06,28,10,24,33.00
2021,06,28,10,25,33.10
2021,06,28,10,26,33.10
2021,06,28,10,27,33.10
2021,06,28,10,28,33.10
2021,06,28,10,29,33.20
2021,06,28,10,30,33.20
2021,06,28,10,31,33.20
2021,06,28,10,32,33.20
2021,06,28,10,33,33.20
2021,06,28,10,34,33.10
2021,06,28,10,35,33.10
2021,06,28,10,36,33.00
2021,06,28,10,37,33.00
2021,06,28,10,38,32.90
2021,06,28,10,39,32.90
2021,06,28,10,40,32.90
2021,06,28,10,41,32.80
2021,06,28,10,42,32.70
2021,06,28,10,43,32.70
2021,06,28,10,44,32.60
2021,06,28,10,45,32.50
2021,06,28,10,46,32.50
2021,06,28,10,47,32.40
2021,06,28,10,48,32.40
2021,06,28,10,49,32.30
2021,06,28,10,50,32.30
2021,06,28,10,51,32.30
2021,06,28,10,52,32.30
2021,06,28,10,53,32.30
2021,06,28,10,54,32.30
2021,06,28,10,55,32.30
2021,06,28,10,56,32.30
2021,06,28,10,57,32.30
2021,06,28,10,58,32.30
2021,06,28,10,59,32.40
2021,06,28,11,00,32.40
2021,06,28,11,01,32.40
2021,06,28,11,02,32.40
2021,06,28,11,03,32.40
2021,06,28,11,04,32.40
2021,06,28,11,05,32.40
2021,06,28,11,06,32.40
2021,06,28,11,07,32.50
2021,06,28,11,08,32.60
2021,06,28,11,09,32.60
2021,06,28,11,10,32.70
2021,06,28,11,11,32.70
2021,06,28,11,12,32.80
2021,06,28,11,13,32.80
2021,06,28,11,14,32.90
2021,06,28,11,15,32.90
2021,06,28,11,16,33.00
2021,06,28,11,17,33.10
2021,06,28,11,18,33.10
2021,06,28,11,19,33.20
2021,06,28,11,20,33.20
2021,06,28,11,21,33.20
2021,06,28,11,22,33.30
2021,06,28,11,23,33.30
2021,06,28,11,24,33.30
2021,06,28,11,25,33.40
2021,06,28,11,26,33.40
2021,06,28,11,27,33.50
2021,06,28,11,28,33.60
2021,06,28,11,29,33.60
2021,06,28,11,30,33.70
2021,06,28,11,31,33.70
2021,06,28,11,32,33.80
2021,06,28,11,33,33.80
2021,06,28,11,34,33.90
2021,06,28,11,35,33.90
2021,06,28,11,36,34.00
2021,06,28,11,37,34.10
2021,06,28,11,38,34.10
2021,06,28,11,39,34.20
2021,06,28,11,40,34.20
2021,06,28,11,41,34.20
2021,06,28,11,42,34.30
2021,06,28,11,43,34.30
2021,06,28,11,44,34.20
2021,06,28,11,45,34.20
2021,06,28,11,46,34.20
2021,06,28,11,47,34.20
2021,06,28,11,48,34.30
2021,06,28,11,49,34.30
2021,06,28,11,50,34.30
2021,06,28,11,51,34.30
2021,06,28,11,52,34.40
2021,06,28,11,53,34.40
2021,06,28,11,54,34.40
2021,06,28,11,55,34.50
2021,06,28,11,56,34.60
2021,06,28,11,57,34.60
2021,06,28,11,58,34.60
2021,06,28,11,59,34.70
2021,06,28,12,00,34.70
2021,06,28,12,01,34.70
2021,06,28,12,02,34.70
2021,06,28,12,03,34.70
2021,06,28,12,04,34.70
2021,06,28,12,05,34.70
2021,06,28,12,06,34.70
2021,06,28,12,07,34.70
2021,06,28,12,08,34.60
2021,06,28,12,09,34.60
2021,06,28,12,10,34.60
2021,06,28,12,11,34.60
2021,06,28,12,12,34.60
2021,06,28,12,13,34.60
2021,06,28,12,14,34.70
2021,06,28,12,15,34.70
2021,06,28,12,16,34.80
2021,06,28,12,17,34.80
2021,06,28,12,18,34.90
2021,06,28,12,19,34.90
2021,06,28,12,20,35.00
2021,06,28,12,21,35.10
2021,06,28,12,22,35.10
2021,06,28,12,23,35.10
2021,06,28,12,24,35.10
2021,06,28,12,25,35.00
2021,06,28,12,26,35.00
2021,06,28,12,27,35.00
2021,06,28,12,28,34.90
2021,06,28,12,29,34.90
2021,06,28,12,30,34.90
2021,06,28,12,31,34.90
2021,06,28,12,32,34.80
2021,06,28,12,33,34.80
2021,06,28,12,34,34.80
2021,06,28,12,35,34.80
2021,06,28,12,36,34.90
2021,06,28,12,37,34.90
2021,06,28,12,38,34.90
2021,06,28,12,39,35.00
2021,06,28,12,40,35.00
2021,06,28,12,41,35.10
2021,06,28,12,42,35.10
2021,06,28,12,43,35.00
2021,06,28,12,44,34.90
2021,06,28,12,45,34.90
2021,06,28,12,46,34.90
2021,06,28,12,47,34.80
2021,06,28,12,48,34.80
2021,06,28,12,49,34.80
2021,06,28,12,50,34.80
2021,06,28,12,51,34.80
2021,06,28,12,52,34.80
2021,06,28,12,53,34.90
2021,06,28,12,54,34.90
2021,06,28,12,55,35.00
2021,06,28,12,56,35.00
2021,06,28,12,57,35.10
2021,06,28,12,58,35.20
2021,06,28,12,59,35.30
2021,06,28,13,00,35.30
2021,06,28,13,01,35.30
2021,06,28,13,02,35.30
2021,06,28,13,03,35.40
2021,06,28,13,04,35.40
2021,06,28,13,05,35.50
2021,06,28,13,06,35.60
2021,06,28,13,07,35.60
2021,06,28,13,08,35.60
2021,06,28,13,09,35.60
2021,06,28,13,10,35.60
2021,06,28,13,11,35.60
2021,06,28,13,12,35.60
2021,06,28,13,13,35.60
2021,06,28,13,14,35.60
2021,06,28,13,15,35.60
2021,06,28,13,16,35.70
2021,06,28,13,17,35.80
2021,06,28,13,18,35.80
2021,06,28,13,19,35.90
2021,06,28,13,20,35.90
2021,06,28,13,21,35.90
2021,06,28,13,22,35.80
2021,06,28,13,23,35.80
2021,06,28,13,24,35.80
2021,06,28,13,25,35.80
2021,06,28,13,26,35.80
2021,06,28,13,27,35.90
2021,06,28,13,28,35.90
2021,06,28,13,29,36.00
2021,06,28,13,30,36.10
2021,06,28,13,31,36.10
2021,06,28,13,32,36.20
2021,06,28,13,33,36.30
2021,06,28,13,34,36.30
2021,06,28,13,35,36.30
2021,06,28,13,36,36.30
2021,06,28,13,37,36.20
2021,06,28,13,38,36.20
2021,06,28,13,39,36.10
2021,06,28,13,40,36.10
2021,06,28,13,41,36.10
2021,06,28,13,42,36.10
2021,06,28,13,43,36.10
2021,06,28,13,44,36.10
2021,06,28,13,45,36.00
2021,06,28,13,46,36.00
2021,06,28,13,47,36.00
2021,06,28,13,48,36.00
2021,06,28,13,49,36.10
2021,06,28,13,50,36.20
2021,06,28,13,51,36.20
2021,06,28,13,52,36.30
2021,06,28,13,53,36.40
2021,06,28,13,54,36.40
2021,06,28,13,55,36.40
2021,06,28,13,56,36.40
2021,06,28,13,57,36.40
2021,06,28,13,58,36.30
2021,06,28,13,59,36.30
2021,06,28,14,00,36.30
2021,06,28,14,01,36.30
2021,06,28,14,02,36.40
2021,06,28,14,03,36.50
2021,06,28,14,04,36.60
2021,06,28,14,05,36.70
2021,06,28,14,06,36.70
2021,06,28,14,07,36.70
2021,06,28,14,08,36.80
2021,06,28,14,09,36.80
2021,06,28,14,10,36.80
2021,06,28,14,11,36.70
2021,06,28,14,12,36.70
2021,06,28,14,13,36.70
2021,06,28,14,14,36.60
2021,06,28,14,15,36.60
2021,06,28,14,16,36.60
2021,06,28,14,17,36.60
2021,06,28,14,18,36.70
2021,06,28,14,19,36.80
2021,06,28,14,20,36.90
2021,06,28,14,21,36.90
2021,06,28,14,22,37.00
2021,06,28,14,23,37.00
2021,06,28,14,24,37.10
2021,06,28,14,25,37.10
2021,06,28,14,26,37.20
2021,06,28,14,27,37.30
2021,06,28,14,28,37.30
2021,06,28,14,29,37.40
2021,06,28,14,30,37.40
2021,06,28,14,31,37.40
2021,06,28,14,32,37.40
2021,06,28,14,33,37.30
2021,06,28,14,34,37.20
2021,06,28,14,35,37.10
2021,06,28,14,36,37.10
2021,06,28,14,37,37.10
2021,06,28,14,38,37.10
2021,06,28,14,39,37.20
2021,06,28,14,40,37.30
2021,06,28,14,41,37.30
2021,06,28,14,42,37.40
2021,06,28,14,43,37.40
2021,06,28,14,44,37.40
2021,06,28,14,45,37.40
2021,06,28,14,46,37.40
2021,06,28,14,47,37.40
2021,06,28,14,48,37.50
2021,06,28,14,49,37.60
2021,06,28,14,50,37.70
2021,06,28,14,51,37.70
2021,06,28,14,52,37.70
2021,06,28,14,53,37.60
2021,06,28,14,54,37.60
2021,06,28,14,55,37.60
2021,06,28,14,56,37.60
2021,06,28,14,57,37.70
2021,06,28,14,58,37.80
2021,06,28,14,59,37.90
2021,06,28,15,00,37.90
2021,06,28,15,01,38.00
2021,06,28,15,02,38.00
2021,06,28,15,03,38.00
2021,06,28,15,04,37.90
2021,06,28,15,05,37.80
2021,06,28,15,06,37.80
2021,06,28,15,07,37.80
2021,06,28,15,08,37.80
2021,06,28,15,09,37.80
2021,06,28,15,10,37.80
2021,06,28,15,11,37.80
2021,06,28,15,12,37.80
2021,06,28,15,13,37.80
2021,06,28,15,14,37.80
2021,06,28,15,15,37.90
2021,06,28,15,16,38.00
2021,06,28,15,17,38.00
2021,06,28,15,18,38.10
2021,06,28,15,19,38.10
2021,06,28,15,20,38.00
2021,06,28,15,21,38.00
2021,06,28,15,22,38.10
2021,06,28,15,23,38.10
2021,06,28,15,24,38.10
2021,06,28,15,25,38.10
2021,06,28,15,26,38.10
2021,06,28,15,27,38.10
2021,06,28,15,28,38.00
2021,06,28,15,29,38.00
2021,06,28,15,30,37.90
2021,06,28,15,31,37.80
2021,06,28,15,32,37.80
2021,06,28,15,33,37.80
2021,06,28,15,34,37.80
2021,06,28,15,35,37.80
2021,06,28,15,36,37.80
2021,06,28,15,37,37.80
2021,06,28,15,38,37.90
2021,06,28,15,39,37.90
2021,06,28,15,40,38.00
2021,06,28,15,41,38.00
2021,06,28,15,42,38.10
2021,06,28,15,43,38.10
2021,06,28,15,44,38.20
2021,06,28,15,45,38.20
2021,06,28,15,46,38.30
2021,06,28,15,47,38.40
2021,06,28,15,48,38.50
2021,06,28,15,49,38.60
2021,06,28,15,50,38.60
2021,06,28,15,51,38.70
2021,06,28,15,52,38.60
2021,06,28,15,53,38.60
2021,06,28,15,54,38.60
2021,06,28,15,55,38.50
2021,06,28,15,56,38.40
2021,06,28,15,57,38.30
2021,06,28,15,58,38.20
2021,06,28,15,59,38.20
2021,06,28,16,00,38.20
2021,06,28,16,01,38.30
2021,06,28,16,02,38.40
2021,06,28,16,03,38.50
2021,06,28,16,04,38.50
2021,06,28,16,05,38.60
2021,06,28,16,06,38.70
2021,06,28,16,07,38.70
2021,06,28,16,08,38.70
2021,06,28,16,09,38.70
2021,06,28,16,10,38.70
2021,06,28,16,11,38.70
2021,06,28,16,12,38.70
2021,06,28,16,13,38.70
2021,06,28,16,14,38.70
2021,06,28,16,15,38.70
2021,06,28,16,16,38.80
2021,06,28,16,17,38.80
2021,06,28,16,18,38.80
2021,06,28,16,19,38.80
2021,06,28,16,20,38.80
2021,06,28,16,21,38.80
2021,06,28,16,22,38.80
2021,06,28,16,23,38.80
2021,06,28,16,24,38.80
2021,06,28,16,25,38.80
2021,06,28,16,26,38.80
2021,06,28,16,27,38.80
2021,06,28,16,28,38.80
2021,06,28,16,29,38.80
2021,06,28,16,30,38.90
2021,06,28,16,31,38.90
2021,06,28,16,32,38.90
2021,06,28,16,33,38.90
2021,06,28,16,34,38.90
2021,06,28,16,35,38.80
2021,06,28,16,36,38.80
2021,06,28,16,37,38.70
2021,06,28,16,38,38.70
2021,06,28,16,39,38.70
2021,06,28,16,40,38.70
2021,06,28,16,41,38.70
2021,06,28,16,42,38.70
2021,06,28,16,43,38.70
2021,06,28,16,44,38.80
2021,06,28,16,45,38.80
2021,06,28,16,46,38.80
2021,06,28,16,47,38.80
2021,06,28,16,48,38.80
2021,06,28,16,49,38.80
2021,06,28,16,50,38.80
2021,06,28,16,51,38.80
2021,06,28,16,52,38.90
2021,06,28,16,53,38.90
2021,06,28,16,54,38.90
2021,06,28,16,55,39.00
2021,06,28,16,56,39.10
2021,06,28,16,57,39.10
2021,06,28,16,58,39.20
2021,06,28,16,59,39.20
2021,06,28,17,00,39.20
2021,06,28,17,01,39.20
2021,06,28,17,02,39.20
2021,06,28,17,03,39.20
2021,06,28,17,04,39.20
2021,06,28,17,05,39.30
2021,06,28,17,06,39.40
2021,06,28,17,07,39.40
2021,06,28,17,08,39.60
2021,06,28,17,09,39.60
2021,06,28,17,10,39.70
2021,06,28,17,11,39.70
2021,06,28,17,12,39.70
2021,06,28,17,13,39.80
2021,06,28,17,14,39.80
2021,06,28,17,15,39.80
2021,06,28,17,16,39.80
2021,06,28,17,17,39.80
2021,06,28,17,18,39.80
2021,06,28,17,19,39.80
2021,06,28,17,20,39.90
2021,06,28,17,21,39.90
2021,06,28,17,22,40.00